TimeCDT,TemperatureF,Dew PointF,Humidity,Sea Level PressureIn,VisibilityMPH,Wind Direction,Wind SpeedMPH,Gust SpeedMPH,PrecipitationIn,Events,Conditions,WindDirDegrees,DateUTC
12:15 AM,74.3,66.2,76,30.06,10.0,SE,6.9,-,N/A,,Clear,130,2013-08-24 05:15:00
12:35 AM,74.3,65.8,75,30.06,10.0,SE,6.9,-,N/A,,Clear,140,2013-08-24 05:35:00
12:55 AM,74.1,65.8,75,30.07,10.0,SE,6.9,-,N/A,,Clear,140,2013-08-24 05:55:00
1:15 AM,73.2,65.8,78,30.07,10.0,SE,5.8,-,N/A,,Clear,140,2013-08-24 06:15:00
1:35 AM,72.5,65.8,80,30.07,10.0,SSE,5.8,-,N/A,,Clear,150,2013-08-24 06:35:00
1:55 AM,72.1,65.8,80,30.07,10.0,SSE,6.9,-,N/A,,Clear,150,2013-08-24 06:55:00
2:15 AM,71.8,65.7,81,30.07,10.0,SSE,5.8,-,N/A,,Clear,150,2013-08-24 07:15:00
2:35 AM,71.6,65.8,82,30.07,10.0,SE,6.9,-,N/A,,Clear,140,2013-08-24 07:35:00
2:55 AM,72.5,66.2,81,30.07,10.0,SSE,6.9,-,N/A,,Clear,150,2013-08-24 07:55:00
3:15 AM,72.1,66.0,81,30.08,10.0,SSE,6.9,-,N/A,,Clear,150,2013-08-24 08:15:00
3:35 AM,71.6,66.0,82,30.08,10.0,SSE,6.9,-,N/A,,Clear,150,2013-08-24 08:35:00
3:55 AM,71.2,66.2,84,30.08,10.0,SSE,8.1,-,N/A,,Clear,150,2013-08-24 08:55:00
4:15 AM,71.1,66.2,85,30.08,10.0,SSE,6.9,-,N/A,,Clear,150,2013-08-24 09:15:00
4:35 AM,71.4,66.6,85,30.08,10.0,SSE,6.9,-,N/A,,Clear,150,2013-08-24 09:35:00
4:55 AM,71.6,66.4,84,30.09,10.0,SSE,8.1,-,N/A,,Clear,150,2013-08-24 09:55:00
5:15 AM,71.8,66.6,84,30.09,10.0,SSE,5.8,-,N/A,,Clear,150,2013-08-24 10:15:00
5:35 AM,71.6,66.4,84,30.10,10.0,SSE,5.8,-,N/A,,Clear,150,2013-08-24 10:35:00
5:55 AM,70.7,66.4,86,30.10,7.0,SE,4.6,-,N/A,,Clear,140,2013-08-24 10:55:00
6:15 AM,70.3,66.4,87,30.11,7.0,SE,5.8,-,N/A,,Clear,140,2013-08-24 11:15:00
6:35 AM,70.5,66.6,87,30.11,7.0,SE,6.9,-,N/A,,Clear,140,2013-08-24 11:35:00
6:55 AM,71.1,66.7,86,30.11,5.0,SE,6.9,-,N/A,,Clear,140,2013-08-24 11:55:00
7:15 AM,71.8,66.9,85,30.13,7.0,SSE,6.9,-,N/A,,Clear,150,2013-08-24 12:15:00
7:35 AM,72.1,66.9,84,30.13,7.0,SSE,6.9,-,N/A,,Clear,150,2013-08-24 12:35:00
7:55 AM,72.5,66.9,83,30.13,7.0,SSE,6.9,-,N/A,,Clear,150,2013-08-24 12:55:00
8:15 AM,73.2,67.1,81,30.13,7.0,SE,5.8,-,N/A,,Clear,140,2013-08-24 13:15:00
8:35 AM,73.8,67.3,80,30.14,7.0,SSE,9.2,-,N/A,,Clear,150,2013-08-24 13:35:00
8:55 AM,76.1,67.6,75,30.13,10.0,South,10.4,-,N/A,,Clear,170,2013-08-24 13:55:00
9:15 AM,77.7,67.6,71,30.13,10.0,South,10.4,-,N/A,,Clear,170,2013-08-24 14:15:00
9:35 AM,79.0,68.4,70,30.13,10.0,South,9.2,-,N/A,,Clear,180,2013-08-24 14:35:00
9:55 AM,80.6,68.5,67,30.13,10.0,South,9.2,-,N/A,,Clear,180,2013-08-24 14:55:00
10:15 AM,82.4,68.7,63,30.13,10.0,SSE,10.4,-,N/A,,Clear,160,2013-08-24 15:15:00
10:35 AM,82.4,68.4,62,30.13,10.0,South,8.1,-,N/A,,Clear,170,2013-08-24 15:35:00
10:55 AM,82.2,68.4,63,30.13,10.0,South,9.2,-,N/A,,Mostly Cloudy,170,2013-08-24 15:55:00
11:15 AM,84.9,68.9,59,30.14,10.0,South,8.1,-,N/A,,Scattered Clouds,180,2013-08-24 16:15:00
11:35 AM,85.3,68.0,56,30.13,10.0,South,8.1,-,N/A,,Clear,180,2013-08-24 16:35:00
11:55 AM,86.2,68.0,54,30.13,10.0,South,10.4,-,N/A,,Clear,190,2013-08-24 16:55:00
12:15 PM,85.1,68.0,56,30.13,10.0,South,9.2,-,N/A,,Scattered Clouds,180,2013-08-24 17:15:00
12:35 PM,84.4,67.1,56,30.13,10.0,South,10.4,-,N/A,,Mostly Cloudy,180,2013-08-24 17:35:00
12:55 PM,85.8,66.9,53,30.11,10.0,South,12.7,17.3,N/A,,Scattered Clouds,180,2013-08-24 17:55:00
1:15 PM,86.4,67.5,53,30.09,10.0,South,13.8,17.3,N/A,,Clear,170,2013-08-24 18:15:00
1:35 PM,86.5,67.1,52,30.09,10.0,South,12.7,19.6,N/A,,Clear,180,2013-08-24 18:35:00
1:55 PM,86.9,67.8,53,30.09,10.0,South,10.4,16.1,N/A,,Clear,170,2013-08-24 18:55:00
2:15 PM,86.5,66.9,52,30.08,10.0,South,10.4,-,N/A,,Clear,180,2013-08-24 19:15:00
2:35 PM,86.7,65.5,49,30.07,10.0,South,11.5,18.4,N/A,,Clear,180,2013-08-24 19:35:00
2:55 PM,87.1,65.8,49,30.07,10.0,South,13.8,17.3,N/A,,Clear,190,2013-08-24 19:55:00
3:15 PM,88.3,66.2,48,30.06,10.0,South,11.5,19.6,N/A,,Clear,190,2013-08-24 20:15:00
3:35 PM,89.1,65.5,45,30.06,10.0,South,12.7,19.6,N/A,,Clear,190,2013-08-24 20:35:00
3:55 PM,87.8,65.1,47,30.06,10.0,South,10.4,18.4,N/A,,Clear,180,2013-08-24 20:55:00
4:15 PM,87.8,66.2,49,30.05,10.0,South,10.4,-,N/A,,Clear,190,2013-08-24 21:15:00
4:35 PM,90.3,66.6,45,30.05,10.0,South,9.2,16.1,N/A,,Clear,180,2013-08-24 21:35:00
4:55 PM,90.5,64.8,42,30.05,10.0,South,11.5,-,N/A,,Clear,180,2013-08-24 21:55:00
5:15 PM,90.9,63.9,41,30.04,10.0,South,18.4,23.0,N/A,,Clear,180,2013-08-24 22:15:00
5:35 PM,90.1,64.4,42,30.05,10.0,South,15.0,18.4,N/A,,Clear,190,2013-08-24 22:35:00
5:55 PM,88.5,63.9,44,30.05,10.0,SSW,10.4,16.1,N/A,,Clear,200,2013-08-24 22:55:00
6:15 PM,89.2,63.9,43,30.04,10.0,South,10.4,16.1,N/A,,Clear,190,2013-08-24 23:15:00
6:35 PM,89.1,64.4,44,30.04,10.0,South,8.1,-,N/A,,Clear,180,2013-08-24 23:35:00
6:55 PM,88.2,64.9,46,30.04,10.0,South,9.2,-,N/A,,Clear,180,2013-08-24 23:55:00
7:15 PM,86.5,65.7,50,30.05,10.0,South,6.9,-,N/A,,Clear,190,2013-08-25 00:15:00
7:35 PM,84.4,66.2,54,30.05,10.0,South,6.9,-,N/A,,Clear,190,2013-08-25 00:35:00
7:55 PM,82.8,65.7,56,30.05,10.0,South,5.8,-,N/A,,Clear,180,2013-08-25 00:55:00
8:15 PM,80.4,66.2,62,30.05,10.0,South,5.8,-,N/A,,Clear,170,2013-08-25 01:15:00
8:35 PM,78.8,66.4,66,30.06,10.0,South,5.8,-,N/A,,Clear,170,2013-08-25 01:35:00
8:55 PM,78.3,66.2,66,30.06,10.0,SSE,5.8,-,N/A,,Clear,160,2013-08-25 01:55:00
9:15 PM,76.8,66.4,70,30.07,10.0,South,5.8,-,N/A,,Clear,170,2013-08-25 02:15:00
9:35 PM,76.3,66.2,71,30.08,10.0,South,5.8,-,N/A,,Clear,170,2013-08-25 02:35:00
9:55 PM,75.6,66.2,73,30.08,10.0,South,5.8,-,N/A,,Clear,170,2013-08-25 02:55:00
10:15 PM,75.6,66.2,73,30.08,10.0,South,5.8,-,N/A,,Clear,170,2013-08-25 03:15:00
10:35 PM,74.7,66.2,75,30.09,10.0,South,6.9,-,N/A,,Clear,170,2013-08-25 03:35:00
10:55 PM,74.3,66.4,76,30.09,10.0,South,6.9,-,N/A,,Clear,170,2013-08-25 03:55:00
11:15 PM,74.7,66.2,75,30.09,10.0,South,6.9,-,N/A,,Clear,170,2013-08-25 04:15:00
11:35 PM,74.8,66.0,74,30.09,10.0,South,6.9,-,N/A,,Clear,180,2013-08-25 04:35:00
11:55 PM,75.4,65.8,72,30.09,10.0,South,8.1,-,N/A,,Clear,180,2013-08-25 04:55:00